Wind_Speed
29 29 31 32 32 32 32 32 33 31 30 28 27 25 24 22 22 20 20 19 20 20 20 19 19 19 20 21 21 20 20 20 21 21 22 22 23 23 23 22 22 22 21 22
29 29 30 31 32 33 32 33 33 33 31 28 28 26 26 24 23 22 22 21 21 20 19 19 20 20 21 21 21 21 21 22 23 23 24 24 24 24 23 24 23 23 22 21
30 29 30 31 32 32 33 33 33 32 30 30 29 27 27 26 25 24 24 23 22 21 20 21 22 23 22 23 23 24 24 24 24 24 24 24 25 24 24 25 25 25 25 24
31 31 33 32 32 33 34 34 32 32 30 29 28 28 28 27 27 26 25 25 24 24 23 24 25 26 26 25 26 26 26 26 25 25 25 26 26 26 26 26 26 26 26 26
33 34 34 34 33 33 33 34 33 32 30 30 29 28 28 28 28 28 27 27 27 27 27 27 28 28 28 28 28 28 27 27 27 27 27 26 27 27 27 27 26 26 26 27
35 35 35 34 33 33 33 34 33 33 32 30 30 29 29 29 29 30 30 30 30 30 29 29 30 29 30 30 29 28 28 29 29 29 28 28 28 28 28 28 27 26 26 26
34 35 35 34 33 33 33 33 32 32 32 32 31 30 30 31 31 31 31 31 32 32 31 32 33 32 30 30 29 29 29 29 30 30 30 30 29 29 29 30 29 28 28 28
34 34 34 32 31 31 31 31 31 32 31 32 32 32 32 33 33 33 32 32 32 33 33 34 34 33 32 31 30 31 32 32 32 32 32 32 32 31 31 31 31 31 31 31
32 32 31 30 30 30 31 32 32 32 33 33 33 33 33 34 34 34 34 35 35 35 35 35 35 35 34 33 33 33 34 34 34 34 34 34 33 33 32 32 32 32 32 32
32 31 31 31 31 30 31 32 32 33 33 33 34 35 34 34 35 35 36 37 37 37 38 36 36 36 35 35 35 35 35 35 36 36 36 36 35 35 35 34 33 33 33 34
33 32 32 32 32 31 31 32 32 33 34 34 34 35 36 36 36 36 36 37 37 37 37 36 35 36 37 37 37 37 36 37 37 37 37 37 37 37 37 36 35 35 34 34
33 32 32 32 32 32 32 32 31 32 33 34 34 35 36 36 36 36 37 38 37 37 37 36 36 36 36 37 37 37 37 37 38 37 37 37 36 36 35 36 36 36 35 35
32 32 33 32 32 32 31 31 31 32 33 34 35 36 36 37 37 36 36 37 38 38 38 36 36 36 36 37 37 37 37 37 37 37 37 37 36 35 35 35 35 35 35 36
32 32 32 32 31 31 31 31 32 32 32 33 33 33 34 34 34 35 36 36 36 36 35 34 34 34 36 37 37 37 37 38 37 37 38 38 37 36 35 35 35 35 35 35
30 31 31 31 30 30 30 31 31 31 32 33 34 33 34 34 35 36 36 36 35 35 34 34 34 34 35 35 36 36 37 37 36 36 36 36 35 34 34 34 34 34 34 34
28 29 30 30 29 29 29 30 30 31 31 31 32 32 32 33 33 33 34 34 34 34 34 33 33 33 33 34 34 34 35 34 34 34 34 34 33 33 33 33 32 32 32 31
27 27 28 29 29 28 28 28 28 29 29 29 28 29 30 30 30 30 31 32 32 31 32 32 32 32 32 33 33 32 32 32 32 31 31 31 30 31 31 31 30 30 30 29
23 24 25 26 27 26 26 26 26 26 26 26 27 27 27 28 28 29 29 30 30 30 31 31 31 31 31 31 31 30 29 29 29 29 29 29 29 29 29 29 29 28 28 27
22 22 23 24 24 24 23 24 24 25 25 26 26 27 27 27 27 27 28 28 28 28 29 29 29 29 30 30 29 29 28 27 26 26 26 27 27 28 28 28 27 27 27 27
21 20 20 21 22 22 23 23 24 24 25 26 26 26 26 26 26 25 25 25 26 26 27 28 28 28 27 27 26 26 26 25 24 24 24 25 25 26 26 26 27 27 26 26
19 19 19 20 21 22 22 23 23 24 24 24 24 24 25 25 25 25 25 24 24 25 26 26 25 24 24 25 25 24 23 23 23 23 23 24 24 24 24 25 25 25 25 24
17 17 18 18 19 21 21 22 22 23 23 23 23 23 23 23 23 23 23 22 22 22 22 22 22 22 22 22 21 21 21 22 21 21 21 21 21 22 22 22 22 22 23 23
14 15 16 17 18 18 19 19 20 20 20 20 20 21 20 20 20 21 21 21 21 21 21 21 21 21 21 21 20 20 20 20 21 21 21 21 21 21 21 22 22 23 23 24
13 13 15 16 16 16 16 17 17 17 17 17 18 18 18 18 19 19 19 19 19 18 18 18 19 19 20 20 20 20 20 20 20 20 20 20 21 21 21 22 22 22 23 23
11 12 13 14 14 14 14 14 15 15 15 15 15 16 16 16 16 17 17 17 16 16 16 16 17 17 18 18 19 19 19 19 19 19 20 20 20 21 21 21 22 22 22 23
8 8 9 9 10 11 11 12 12 13 13 13 13 13 13 13 13 13 14 14 14 14 14 15 15 15 16 16 17 17 18 18 18 18 19 19 20 21 22 22 21 21 21 22
7 7 8 9 9 9 9 10 11 11 11 11 11 11 11 12 11 11 11 11 12 13 13 13 13 14 15 15 16 17 17 17 18 18 19 19 20 20 20 21 21 21 22 22
Wind_Direction
242 241 241 243 243 245 247 251 254 259 264 265 263 263 264 266 266 265 263 263 264 266 269 270 273 276 279 282 282 283 285 284 284 284 285 287 288 288 289 288 289 290 287 277
243 244 245 246 247 247 249 251 254 258 262 263 262 262 263 265 266 265 262 265 268 270 272 271 274 278 279 280 281 282 283 284 286 287 286 287 289 288 289 287 287 286 285 280
244 244 246 247 247 249 252 252 254 257 260 262 262 263 262 262 262 264 264 267 268 268 270 273 275 277 280 279 278 281 283 284 285 287 285 286 286 287 285 285 285 282 280 277
246 246 249 251 251 250 252 254 256 256 258 262 262 262 262 262 262 262 266 270 270 268 270 273 275 277 276 276 279 280 281 282 282 284 285 286 287 286 285 285 286 284 279 276
248 249 253 254 254 253 254 253 254 256 258 260 260 260 261 263 262 265 267 269 270 271 271 272 273 275 275 276 278 279 280 280 281 283 284 285 286 285 285 285 285 284 283 279
249 251 253 254 255 256 255 254 254 255 257 259 260 260 261 262 264 267 269 270 270 269 269 272 273 273 275 275 277 280 279 279 280 280 281 283 284 285 284 286 286 282 281 280
251 253 255 255 255 256 257 257 256 256 256 256 258 259 259 261 263 265 266 268 269 270 271 274 274 273 276 278 278 279 279 279 279 280 282 283 283 283 283 284 285 283 280 279
250 252 255 257 257 256 258 257 256 255 256 257 258 260 260 260 261 264 264 265 269 270 273 273 272 272 274 278 278 279 279 280 280 280 281 282 281 281 282 283 282 281 280 280
250 252 254 255 256 256 256 257 257 256 255 256 257 258 260 261 262 264 265 266 268 270 273 273 273 275 274 276 276 277 278 279 280 280 281 282 284 283 281 281 281 281 280 279
251 252 252 255 258 259 259 260 260 259 258 259 260 261 262 263 263 263 264 266 268 270 273 273 274 275 274 275 275 277 278 279 279 279 280 281 282 283 282 279 280 280 279 279
252 253 254 257 260 260 259 259 260 260 261 262 263 263 264 264 263 263 265 265 267 270 272 273 274 274 274 275 276 277 277 278 279 279 280 281 282 283 284 281 281 280 279 278
253 255 257 258 259 261 260 261 261 261 261 262 262 264 265 266 266 266 266 266 267 269 271 273 275 276 276 275 276 277 277 278 279 279 280 281 281 280 281 281 279 279 279 281
254 255 256 258 259 259 259 261 263 263 264 265 265 266 267 267 268 268 269 268 270 271 272 273 274 274 274 275 276 277 278 278 278 278 279 279 280 280 280 282 281 279 281 280
254 256 257 258 259 260 260 262 262 263 266 267 268 268 268 268 269 269 271 271 272 272 272 271 271 272 273 274 275 276 277 278 278 278 279 280 280 279 280 281 281 280 280 280
257 258 259 260 261 260 261 261 262 265 267 269 270 271 269 270 270 269 270 271 271 271 272 272 273 273 273 274 276 278 278 278 279 280 280 281 280 279 279 281 280 279 280 280
258 260 261 261 261 260 261 263 264 266 270 273 274 272 270 269 269 271 271 270 270 270 270 271 273 274 275 276 277 278 278 279 279 279 280 279 279 279 280 282 284 283 282 281
260 261 262 262 261 261 263 265 267 269 272 274 274 273 272 272 272 272 272 270 270 269 268 269 271 273 275 276 277 278 279 280 279 279 279 279 277 278 280 280 282 283 283 283
261 262 261 262 263 265 267 268 271 272 272 274 275 275 273 272 273 273 273 272 272 271 270 271 272 272 273 275 276 276 279 279 279 277 277 277 277 279 281 281 281 282 284 285
261 263 262 262 263 265 267 268 269 271 274 276 276 277 277 277 275 273 273 273 273 273 272 272 274 275 274 275 276 277 277 276 276 277 278 279 280 281 282 281 281 283 284 284
263 263 263 263 264 265 268 269 270 273 275 276 277 277 277 276 275 274 273 273 275 274 273 272 273 276 276 278 278 277 277 276 276 277 279 281 282 283 283 283 282 282 283 283
263 263 264 266 266 268 270 272 273 275 276 276 277 278 276 275 274 275 276 277 277 275 273 274 275 276 279 279 279 278 278 278 280 281 282 282 282 283 283 284 284 283 282 283
263 263 265 269 271 272 273 274 275 277 278 278 279 279 278 278 277 277 278 279 279 277 275 274 275 277 279 280 280 278 278 279 282 284 284 285 286 287 287 286 285 285 284 284
267 267 269 273 275 276 277 277 277 279 279 279 280 281 283 282 280 280 279 280 279 278 275 272 273 276 279 280 282 283 284 284 284 285 287 289 289 289 288 288 287 286 287 286
272 273 274 276 278 279 282 282 281 282 283 282 283 285 285 284 282 282 280 277 277 278 276 275 276 276 278 281 283 284 285 285 285 285 287 288 289 289 289 289 290 288 287 289
277 276 277 280 281 285 286 285 285 287 288 288 286 287 289 288 285 284 281 278 277 277 278 278 279 281 281 282 285 286 287 287 287 288 288 288 288 289 290 290 290 290 291 292
285 288 289 288 290 293 291 292 293 290 292 293 290 290 293 294 292 289 286 282 280 280 281 282 284 286 287 287 287 289 290 289 287 288 288 289 289 289 291 290 289 289 291 293
289 297 301 302 303 304 302 301 301 301 301 300 299 296 297 300 299 296 294 291 287 286 286 285 285 288 291 291 291 291 291 290 288 288 288 289 291 293 293 293 294 294 296 296
Height
5834 5837 5839 5840 5843 5845 5848 5849 5852 5854 5856 5859 5861 5863 5864 5865 5866 5867 5868 5868 5869 5869 5869 5869 5869 5868 5867 5866 5865 5864 5863 5862 5860 5859 5858 5856 5854 5853 5852 5850 5849 5847 5846 5846
5828 5830 5832 5834 5836 5838 5841 5842 5845 5847 5850 5852 5854 5856 5857 5859 5860 5861 5862 5862 5863 5863 5863 5863 5862 5862 5861 5860 5859 5858 5857 5856 5855 5853 5852 5850 5848 5847 5846 5844 5843 5841 5841 5840
5821 5824 5825 5827 5829 5831 5833 5835 5838 5840 5843 5845 5847 5849 5851 5852 5853 5854 5855 5856 5856 5856 5856 5856 5855 5855 5854 5853 5852 5851 5850 5849 5848 5847 5845 5843 5842 5840 5839 5838 5836 5835 5834 5833
5814 5817 5818 5822 5822 5824 5826 5828 5830 5833 5835 5837 5839 5841 5843 5845 5846 5847 5848 5848 5849 5849 5849 5849 5848 5848 5847 5846 5845 5844 5843 5842 5841 5840 5839 5837 5835 5834 5832 5831 5829 5828 5827 5826
5806 5808 5810 5813 5815 5816 5819 5820 5823 5825 5828 5830 5832 5834 5836 5837 5838 5839 5840 5841 5841 5841 5841 5841 5840 5840 5839 5839 5838 5837 5836 5835 5833 5832 5831 5830 5828 5826 5825 5823 5822 5820 5819 5818
5799 5800 5803 5807 5808 5809 5812 5812 5816 5818 5820 5822 5824 5826 5828 5829 5830 5831 5832 5832 5832 5833 5832 5832 5832 5832 5831 5830 5830 5829 5827 5826 5825 5824 5823 5821 5820 5818 5817 5815 5814 5813 5812 5811
5791 5793 5795 5798 5800 5802 5805 5807 5809 5810 5812 5814 5816 5818 5820 5820 5822 5822 5823 5824 5824 5824 5824 5823 5823 5822 5822 5821 5820 5819 5818 5818 5817 5815 5814 5813 5811 5810 5808 5807 5806 5804 5804 5803
5783 5786 5790 5791 5792 5795 5796 5798 5800 5802 5804 5806 5808 5810 5811 5812 5813 5814 5814 5815 5815 5815 5815 5814 5813 5812 5812 5811 5811 5810 5809 5808 5807 5806 5805 5803 5802 5800 5799 5798 5797 5795 5794 5794
5777 5780 5781 5783 5785 5786 5788 5790 5792 5794 5796 5798 5799 5801 5802 5803 5804 5805 5806 5806 5806 5806 5805 5804 5803 5803 5802 5801 5800 5800 5799 5798 5797 5796 5794 5793 5792 5790 5789 5787 5786 5785 5784 5784
5769 5771 5773 5775 5777 5778 5780 5782 5783 5785 5786 5788 5790 5791 5793 5794 5795 5795 5795 5796 5795 5795 5794 5793 5793 5792 5791 5790 5790 5789 5788 5787 5786 5785 5784 5782 5781 5780 5778 5776 5775 5774 5774 5773
5760 5763 5765 5767 5768 5770 5771 5773 5774 5776 5777 5779 5780 5781 5782 5783 5784 5784 5784 5785 5784 5784 5783 5782 5782 5781 5781 5780 5779 5778 5778 5777 5776 5774 5773 5772 5770 5769 5766 5765 5764 5763 5762 5762
5752 5755 5757 5759 5760 5761 5762 5764 5765 5766 5768 5769 5770 5771 5772 5773 5773 5773 5773 5773 5772 5772 5772 5771 5771 5770 5769 5769 5768 5767 5767 5766 5764 5763 5762 5760 5759 5757 5754 5754 5753 5751 5750 5749
5744 5745 5747 5749 5751 5752 5753 5755 5756 5757 5758 5759 5760 5761 5761 5762 5762 5762 5761 5761 5761 5761 5761 5760 5760 5759 5759 5758 5757 5756 5755 5754 5752 5751 5750 5749 5747 5745 5744 5743 5741 5740 5739 5738
5735 5737 5738 5740 5742 5743 5745 5746 5747 5748 5749 5750 5750 5751 5751 5751 5751 5751 5751 5751 5750 5750 5749 5748 5748 5748 5747 5746 5745 5745 5744 5742 5741 5739 5738 5737 5735 5734 5733 5732 5731 5729 5728 5727
5727 5728 5730 5732 5733 5735 5736 5737 5738 5739 5740 5741 5741 5741 5741 5741 5741 5740 5740 5739 5739 5738 5738 5738 5738 5737 5736 5735 5734 5733 5732 5731 5729 5728 5726 5725 5724 5723 5723 5721 5720 5719 5718 5717
5719 5720 5722 5723 5725 5726 5728 5729 5730 5731 5731 5731 5730 5730 5730 5730 5729 5728 5728 5728 5727 5727 5727 5728 5727 5726 5725 5724 5723 5722 5721 5719 5718 5717 5716 5715 5714 5713 5713 5712 5711 5710 5709 5708
5712 5713 5714 5715 5717 5718 5719 5720 5721 5722 5721 5721 5720 5720 5719 5719 5719 5718 5717 5717 5716 5716 5716 5716 5716 5716 5715 5714 5713 5712 5711 5709 5708 5707 5706 5705 5704 5704 5703 5702 5701 5701 5700 5698
5705 5706 5707 5708 5709 5710 5711 5712 5712 5713 5713 5712 5712 5711 5710 5710 5709 5708 5707 5706 5706 5706 5706 5706 5706 5706 5705 5704 5702 5701 5701 5700 5699 5698 5697 5696 5695 5695 5694 5694 5693 5692 5691 5690
5698 5699 5700 5701 5702 5703 5704 5704 5705 5705 5704 5704 5703 5703 5702 5701 5700 5699 5698 5697 5697 5698 5698 5697 5697 5697 5696 5695 5694 5693 5693 5692 5691 5690 5689 5688 5688 5687 5687 5685 5684 5684 5683 5682
5692 5692 5693 5694 5695 5696 5697 5697 5697 5697 5696 5695 5695 5694 5693 5693 5692 5690 5690 5689 5689 5690 5689 5689 5688 5689 5688 5687 5686 5686 5685 5685 5684 5683 5682 5681 5680 5680 5678 5677 5676 5675 5674 5673
5686 5686 5687 5688 5689 5689 5689 5689 5689 5689 5688 5687 5687 5686 5685 5684 5684 5683 5682 5682 5682 5681 5681 5681 5681 5680 5680 5679 5678 5678 5678 5677 5677 5676 5675 5674 5673 5672 5670 5669 5668 5667 5666 5665
5680 5681 5682 5682 5682 5682 5682 5682 5682 5681 5680 5680 5679 5678 5677 5676 5675 5675 5674 5674 5674 5673 5673 5673 5673 5673 5673 5672 5671 5671 5671 5670 5669 5669 5668 5667 5666 5665 5663 5662 5661 5660 5659 5657
5675 5675 5676 5676 5676 5676 5676 5675 5675 5674 5673 5672 5672 5670 5669 5668 5668 5667 5667 5667 5666 5666 5665 5666 5666 5666 5666 5666 5666 5665 5665 5664 5664 5663 5662 5660 5659 5658 5657 5656 5655 5654 5653 5651
5670 5671 5671 5671 5671 5671 5670 5669 5668 5667 5667 5666 5665 5664 5663 5662 5661 5660 5660 5660 5659 5659 5659 5659 5660 5660 5660 5660 5660 5660 5659 5658 5657 5656 5655 5654 5653 5652 5651 5650 5648 5647 5645 5644
5667 5667 5667 5667 5667 5666 5665 5664 5663 5662 5661 5660 5659 5658 5657 5656 5655 5655 5654 5654 5654 5654 5654 5654 5654 5655 5655 5654 5654 5653 5653 5652 5651 5650 5649 5648 5647 5646 5645 5643 5642 5640 5639 5637
5664 5664 5664 5663 5663 5662 5660 5659 5659 5658 5657 5656 5654 5653 5652 5651 5650 5649 5649 5649 5649 5649 5649 5650 5650 5650 5649 5649 5648 5648 5647 5646 5645 5644 5643 5642 5641 5640 5638 5637 5635 5634 5632 5631
5663 5662 5662 5661 5660 5659 5658 5656 5655 5655 5653 5652 5651 5650 5649 5648 5647 5646 5646 5646 5646 5645 5645 5645 5645 5645 5645 5644 5643 5643 5642 5641 5640 5639 5638 5637 5636 5634 5632 5631 5629 5627 5625 5624